{"data":{"norad_id":53078,"intl_designator":"2022-077AM","name":"STARLINK-4322","alt_names":[],"object_type":"PAYLOAD","status":"ACTIVE","operator":null,"country":"US","launch_date":"2022-07-11","launch_site_code":"AFWTR","launch_vehicle":null,"mission":null,"orbit_class":"UNKNOWN","rcs_meters":null,"size_class":null,"mass_kg":null,"dimensions":null,"purposes":["comms"],"wikipedia_slug":null,"has_3d_model":false,"image_url":null,"decayed_at":null,"tle_current":{"epoch":"2026-05-24T23:23:38.164128Z","epoch_age_seconds":71216,"freshness":"FRESH","line1":"1 53078U 22077AM  26144.97474727 -.00000252  00000+0 -13426-4 0  9995","line2":"2 53078  97.4508 324.9838 0000949 138.4758 221.6541 15.05657465212395","mean_motion":15.05657465,"eccentricity":9.49e-5,"inclination_deg":97.4508,"raan_deg":324.9838,"arg_perigee_deg":138.4758,"mean_anomaly_deg":221.6541,"bstar":-1.3426e-5,"rev_number":21239,"period_min":95.639282736861,"perigee_km":548.83082434951,"apogee_km":550.1456876231,"semimajor_km":6927.6252559863,"source":"CELESTRAK","updated_at":"2026-05-25T13:38:17.313052Z"}}}